SCP
0 0 0 0 0 0 0 0 0 0 0 0 0 0 0 0 0 0 0 0 0 0 0 0 0 0 0 0 0 0 0 0 0 0 0 0 0 0 0 0 0 0 0
0 0 0 0 0 0 0 0 0 0 0 0 0 0 0 0 0 0 0 0 0 0 0 0 0 0 0 0 0 0 0 0 0 0 0 0 0 0 0 0 0 0 0
0 0 0 0 0 0 0 0 0 0 0 0 0 0 0 0 0 0 0 0 0 0 0 0 0 0 0 0 0 0 0 0 0 0 0 0 0 0 0 0 0 0 0
0 0 0 0 0 0 0 0 0 0 0 0 0 0 0 0 0 0 0 0 0 0 0 0 0 0 0 0 0 0 0 0 0 0 0 0 0 0 0 0 0 0 0
0 0 0 0 0 0 0 0 0 0 0 0 0 0 0 0 0 0 0 0 0 0 0 0 0 0 0 0 0 0 0 0 0 0 0 0 0 0 0 0 0 0 0
0 0 0 0 0 0 0 0 0 0 0 0 0 0 0 0 0 0 0 0 0 0 0 0 0 0 0 0 0 0 0 0 0 0 0 0 0 0 0 0 0 0 0
0 0 0 0 0 0 0 0 0 0 0 0 0 0 0 0 0 0 0 0 0 0 0 0 0 0 0 0 0 0 0 0 0 0 0 0 0 0 0 0 0 0 0
0 0 0 0 0 0 0 0 0 0 0 0 0 0 0 0 0 0 0 0 0 0 0 0 0 0 0 0 0 0 0 0 0 0 0 0 0 0 0 0 0 0 0
0 0 0 0 0 0 0 0 0 0 0 0 0 0 0 0 0 0 0 0 0 0 0 0 0 0 0 0 0 0 0 0 0 0 0 0 0 0 0 0 0 0 0
0 0 0 0 0 0 0 0 0 0 0 0 0 0 0 0 0 0 0 0 0 0 0 0 0 0 0 0 0 0 0 0 0 0 0 0 0 0 0 0 0 0 0
0 0 0 0 0 0 0 0 0 0 0 0 0 0 0 0 0 0 0 0 0 0 0 0 0 0 0 0 0 0 0 0 0 -0 0 0 0 0 0 0 0 0 0
0 0 0 0 0 0 0 0 0 0 0 0 0 0 0 0 0 0 0 0 0 0 0 0 0 0 0 0 0 0 0 0 0 -0 0 0 0 0 0 0 0 0 0
0 0 0 0 0 0 0 0 0 0 0 0 0 0 0 0 0 0 0 0 0 0 0 0 0 0 0 0 0 0 0 0 0 -0 0 0 0 0 0 0 0 0 0
0 0 0 0 0 0 0 0 0 0 0 0 0 0 0 0 0 0 0 0 0 0 0 0 0 0 0 0 0 0 0 0 0 0 0 0 0 0 0 0 0 0 0
0 0 0 0 0 0 0 0 0 0 0 0 0 0 0 0 0 0 0 0 0 0 0 0 0 0 0 0 0 0 0 0 0 0 0 0 0 0 0 0 0 0 0
0 0 0 0 0 0 0 0 0 0 0 0 0 0 0 0 0 0 0 0 0 0 0 0 0 0 0 0 0 0 0 0 0 0 0 0 0 0 0 0 0 0 0
0 0 0 0 0 0 0 0 0 0 0 0 0 0 0 0 0 0 0 0 0 0 0 0 0 0 0 0 0 0 0 0 0 0 0 0 0 0 0 0 0 0 0
0 0 0 0 0 0 0 0 0 0 0 0 0 0 0 0 0 0 0 0 0 0 0 0 0 0 0 0 0 0 0 0 0 0 0 0 0 0 0 0 0 0 0
0 0 0 0 0 0 0 0 0 0 0 0 0 0 0 0 0 0 0 0 0 0 0 0 0 0 0 0 0 0 0 0 0 0 0 0 0 0 0 0 0 0 0
0 0 0 0 0 0 0 0 0 0 0 0 0 0 0 0 0 0 0 0 0 0 0 0 0 0 0 0 0 0 0 0 0 0 0 0 0 0 0 0 0 0 0
0 0 0 0 0 0 0 0 0 0 0 0 0 0 0 0 0 0 0 0 0 0 0 0 0 0 0 0 0 0 0 0 0 0 0 0 0 0 0 0 0 0 0
0 0 0 0 0 0 0 0 0 0 0 0 0 0 0 0 0 0 0 0 0 0 0 0 0 0 0 0 0 0 0 0 0 0 0 0 0 0 0 0 0 0 0
0 0 0 0 0 0 0 0 0 0 0 0 0 0 0 0 0 0 0 0 0 0 0 0 0 0 0 0 0 0 0 0 0 0 0 0 0 0 0 0 0 0 0
0 0 0 0 0 0 0 0 0 0 0 0 0 0 0 0 0 0 0 0 0 0 0 0 0 0 0 0 0 0 0 0 0 0 0 0 0 0 0 0 0 0 0
0 0 0 0 0 0 0 0 0 0 0 0 0 0 0 0 0 0 0 0 0 0 0 0 0 0 0 0 0 0 0 0 0 0 0 0 0 0 0 0 0 0 0
0 0 0 0 0 0 0 0 0 0 0 0 0 0 0 0 0 0 0 0 0 0 0 0 0 0 0 0 0 0 0 0 0 0 0 0 0 0 0 0 0 0 0
Wind_Speed
7 9 14 14 15 14 14 14 14 13 13 13 13 13 13 13 13 13 13 13 14 15 15 15 15 15 15 15 15 15 15 15 14 14 14 14 14 14 14 14 12 8 14
11 10 14 14 15 15 14 14 13 13 13 13 13 13 13 13 13 13 12 13 13 14 14 14 14 14 14 13 13 13 14 13 13 13 13 12 13 13 13 13 12 8 13
13 11 12 13 14 15 14 14 13 13 13 13 13 13 13 13 13 13 13 13 13 13 13 14 13 13 12 11 11 12 12 12 11 11 10 5 7 12 12 12 11 12 11
14 11 11 13 14 15 14 13 13 13 13 13 13 13 12 12 12 12 12 12 12 12 12 12 12 11 10 10 10 10 10 10 10 9 5 3 4 10 11 10 10 10 9
12 10 11 14 15 15 14 13 13 12 12 13 12 12 12 12 12 12 12 11 11 11 11 11 11 10 9 9 8 9 9 9 9 7 4 3 3 8 9 9 9 8 8
11 10 11 14 15 15 14 13 13 12 13 13 12 12 12 12 11 11 11 11 10 10 10 10 10 9 8 7 7 8 8 8 7 4 3 2 2 6 7 7 7 6 6
10 9 11 13 14 14 14 13 12 12 13 12 12 12 11 11 11 11 10 10 9 9 9 9 9 8 7 6 5 6 7 6 4 3 2 2 2 5 6 5 4 4 3
11 10 10 12 12 12 12 12 11 12 12 11 11 11 11 11 10 10 10 9 9 9 8 8 7 6 5 4 3 4 4 4 3 2 1 1 2 4 4 3 3 2 2
10 9 8 8 9 11 11 11 10 10 10 10 10 10 10 9 9 9 8 9 9 8 8 7 6 5 4 3 1 2 2 2 1 0 1 1 3 3 3 3 3 2 2
9 9 8 7 7 7 7 10 10 10 10 10 9 9 9 9 8 8 7 8 8 8 8 7 6 5 4 3 2 1 1 1 0 1 1 2 5 5 5 4 4 4 4
9 8 8 8 7 6 6 8 9 10 10 9 8 10 8 5 5 5 6 7 8 8 8 7 7 5 4 3 3 3 2 1 1 1 2 5 7 7 7 6 6 6 6
12 10 9 9 8 7 6 5 5 5 5 5 5 6 4 4 4 5 7 8 8 8 8 8 7 5 4 2 3 4 2 3 2 2 3 8 8 8 8 8 9 9 9
12 11 10 10 9 8 5 5 4 3 4 5 6 6 4 4 3 3 3 4 5 6 4 4 4 3 3 3 3 3 3 3 2 3 4 9 10 10 10 11 11 11 11
11 11 11 11 10 9 7 6 5 4 4 4 6 6 5 3 3 3 3 4 3 3 4 3 3 4 4 5 5 5 5 3 3 3 4 10 11 12 13 13 13 13 13
11 11 11 11 11 10 8 6 7 6 6 6 5 6 6 5 5 4 4 4 4 4 4 4 4 5 5 5 5 6 6 6 5 5 4 9 11 13 15 15 15 16 16
12 12 11 11 11 10 9 8 7 7 6 6 6 7 8 6 6 5 5 5 5 5 5 5 6 5 5 4 6 6 6 6 6 6 5 7 11 13 16 17 17 17 17
11 11 12 12 11 11 10 9 7 6 6 6 6 7 8 7 7 6 5 5 5 5 5 5 5 4 4 5 6 6 5 6 6 7 6 5 6 11 15 18 18 19 19
10 11 12 10 11 11 10 8 6 6 7 6 6 6 8 8 7 6 5 5 5 4 4 4 4 4 4 4 4 5 5 5 7 8 7 7 6 6 9 15 18 19 19
12 11 12 11 12 11 10 7 6 6 6 6 6 6 7 9 8 7 6 5 5 5 5 5 4 4 4 5 5 5 5 6 7 7 8 8 8 7 7 10 14 15 17
10 10 11 11 11 9 7 5 5 5 6 5 6 7 8 8 9 8 6 6 6 5 5 4 5 5 4 4 4 6 6 7 6 7 9 8 7 8 7 7 7 8 13
8 10 11 11 10 8 7 7 7 8 7 6 6 7 8 8 8 8 6 6 6 6 7 7 5 6 5 3 3 4 5 7 9 8 7 6 7 7 6 6 5 5 5
10 10 10 11 10 10 8 8 6 5 5 5 4 6 8 8 8 7 8 7 7 7 7 7 6 4 4 4 3 2 4 4 4 5 5 6 6 5 5 6 6 6 5
9 10 9 11 11 11 9 5 3 3 2 4 5 6 7 8 8 8 8 7 7 7 7 8 8 8 6 5 5 4 3 4 4 3 3 4 4 4 4 4 5 6 5
8 8 8 8 9 9 9 7 8 8 8 8 6 5 5 7 7 8 8 8 7 6 7 7 7 7 7 6 5 6 5 3 3 4 3 3 3 4 4 4 4 5 5
6 6 6 6 7 7 8 10 10 8 7 5 4 4 5 5 6 7 8 8 8 7 7 7 7 7 7 7 5 4 5 5 6 5 6 4 3 3 4 4 4 4 4
3 4 4 5 5 5 7 8 9 9 8 5 6 6 5 5 5 7 7 8 8 7 8 8 7 8 7 7 6 5 4 4 5 6 8 6 5 4 4 4 4 4 4
Wind_Direction
153 159 151 147 143 139 135 131 128 125 122 120 120 116 113 110 109 107 104 103 100 98 94 92 90 88 87 86 86 84 82 79 78 78 79 80 81 81 79 77 73 67 76
150 155 150 148 145 141 137 135 133 131 128 124 122 120 117 114 112 111 108 105 103 102 99 96 93 91 89 88 88 87 85 82 81 79 77 78 81 83 82 82 81 79 78
145 150 149 147 145 143 139 138 137 136 133 128 125 124 122 120 118 115 110 109 107 106 104 101 98 95 93 91 90 87 83 82 83 82 76 62 76 85 84 82 81 80 80
145 149 150 147 146 145 143 143 141 139 137 133 131 129 126 125 123 121 116 114 112 110 109 106 104 100 96 92 87 82 78 80 81 79 68 60 73 88 87 85 82 81 80
144 148 149 149 149 149 148 147 146 144 141 139 137 134 130 128 124 123 121 117 115 115 114 112 111 106 100 93 83 74 74 80 80 76 67 66 70 93 91 88 85 82 79
144 147 152 152 153 152 152 152 151 149 146 142 141 139 135 132 130 128 126 122 120 119 119 117 117 112 104 94 79 70 73 82 81 78 79 80 83 102 102 100 97 93 86
146 149 156 155 156 156 156 157 156 154 151 148 146 144 141 139 138 136 132 131 128 127 127 126 125 121 112 99 82 70 69 79 83 88 97 96 125 123 116 114 114 108 101
148 151 157 157 157 158 159 160 159 158 156 155 153 150 149 147 147 146 143 140 141 141 138 134 135 133 128 115 86 65 60 64 79 94 125 152 163 153 144 138 139 135 129
148 152 155 158 161 162 162 162 162 161 160 159 157 154 153 152 153 152 152 153 154 155 152 150 147 149 154 146 110 49 40 45 77 155 204 201 198 192 188 182 188 201 212
150 156 159 160 160 162 164 167 168 167 166 163 160 158 159 161 160 161 162 166 166 166 165 165 165 170 178 185 200 263 306 353 196 231 227 227 218 219 220 217 222 231 241
162 166 166 167 167 165 167 173 172 172 174 169 167 168 165 166 167 169 175 177 177 176 177 180 183 190 196 218 237 258 282 273 249 239 233 234 229 231 234 235 236 240 246
175 176 174 175 175 173 178 170 173 176 174 173 170 171 171 172 180 183 185 188 187 187 190 196 200 203 207 235 261 266 264 260 248 240 240 240 238 241 243 245 246 247 249
177 178 179 179 179 179 178 171 175 175 175 179 181 181 178 178 185 190 185 193 196 196 199 209 213 213 215 224 240 246 248 252 244 246 245 243 244 247 252 254 253 254 253
179 185 183 181 180 183 180 179 180 181 184 188 192 189 182 184 192 193 194 194 193 194 196 206 214 222 228 231 235 242 244 240 239 240 245 244 246 252 258 262 262 260 259
185 188 187 184 184 183 182 186 186 189 191 192 193 196 191 191 196 197 199 198 200 197 199 206 216 225 232 237 237 235 240 240 240 238 244 245 246 251 259 264 266 265 262
193 193 188 188 187 183 186 190 191 191 192 192 197 199 196 197 198 197 200 203 206 205 204 207 213 221 229 231 238 237 238 241 244 243 242 246 246 249 256 263 267 268 267
195 193 191 191 189 189 191 193 192 191 190 195 199 199 197 197 198 198 200 205 209 206 206 210 219 222 229 232 240 243 243 245 248 248 246 244 247 248 250 258 264 267 269
194 192 194 192 190 193 194 193 192 191 191 197 198 200 202 202 200 200 204 209 204 200 201 206 213 221 232 235 242 247 247 249 250 250 249 247 244 248 249 252 257 261 266
198 194 194 194 194 196 195 194 193 192 196 199 199 203 206 206 203 204 210 210 199 202 205 208 212 212 228 238 245 251 250 250 252 253 253 251 247 246 246 252 251 255 261
199 196 196 197 198 195 193 191 194 201 205 202 204 207 205 207 206 206 211 209 201 206 212 210 216 217 222 230 248 257 254 253 252 251 253 254 251 248 246 249 252 254 255
199 197 196 195 197 188 188 194 199 209 209 208 208 207 206 207 206 207 212 209 206 213 216 213 214 221 227 211 240 273 269 255 252 251 249 251 253 251 248 247 246 247 256
202 201 200 199 195 193 197 198 200 200 204 207 206 208 209 208 208 208 211 213 211 215 218 216 212 217 220 193 199 243 291 301 274 253 247 246 251 253 252 251 247 245 246
206 204 201 200 196 196 196 184 178 179 191 202 211 216 216 211 210 212 214 214 214 215 222 221 215 217 226 215 203 201 228 254 299 289 258 248 245 245 253 257 253 251 248
208 204 202 199 196 195 188 185 187 196 208 214 211 214 214 211 213 215 217 216 217 219 223 224 220 220 220 228 220 219 225 211 247 293 293 273 255 249 251 256 257 256 255
203 197 197 193 195 196 191 193 195 205 214 212 199 203 211 213 216 218 218 219 220 222 225 225 222 220 221 227 223 217 228 235 233 251 275 285 285 259 253 251 251 255 255
202 191 186 181 191 192 190 195 198 205 208 203 203 208 213 215 218 221 220 220 221 223 225 227 226 221 223 225 226 220 214 224 229 234 253 265 271 268 257 247 246 250 253